{"data":{"norad_id":68808,"epoch":"2026-05-25T02:48:46.213056Z","epoch_age_seconds":64813,"freshness":"FRESH","line1":"1 68808U 26089G   26145.11720154  .00261006  00000+0  16983-2 0  9997","line2":"2 68808  97.2853 351.7569 0001901  71.6674 288.4798 15.75183077  5065","mean_motion":15.75183077,"eccentricity":0.0001901,"inclination_deg":97.2853,"raan_deg":351.7569,"arg_perigee_deg":71.6674,"mean_anomaly_deg":288.4798,"bstar":0.0016983,"rev_number":506,"period_min":91.41794506468,"perigee_km":342.83236579318,"apogee_km":345.38816420333,"semimajor_km":6722.2472649983,"source":"CELESTRAK","updated_at":"2026-05-25T13:38:22.041042Z"}}